QPF
0.00 0.01 0.03 0.03 0.04 0.04 0.03 0.02 0.02 0.03 0.02 0.02 0.02 0.01 0.01 0.02 0.03 0.02 0.02 0.02 0.03 0.04 0.03 0.03 0.03 0.03 0.03 0.03 0.03 0.03 0.02 0.01 0.01 0.01 0.01 0.01 0.02 0.02 0.01 0.01 0.01 0.01 0.03
0.00 0.02 0.03 0.03 0.03 0.04 0.03 0.02 0.02 0.02 0.03 0.03 0.02 0.02 0.03 0.02 0.02 0.02 0.02 0.02 0.03 0.05 0.05 0.04 0.03 0.03 0.03 0.03 0.03 0.03 0.02 0.01 0.01 0.01 0.01 0.01 0.02 0.02 0.02 0.01 0.02 0.03 0.03
0.00 0.01 0.03 0.03 0.03 0.03 0.02 0.02 0.02 0.02 0.02 0.02 0.02 0.02 0.03 0.03 0.03 0.02 0.02 0.02 0.03 0.05 0.04 0.02 0.02 0.03 0.04 0.03 0.03 0.03 0.03 0.02 0.01 0.01 0.01 0.01 0.02 0.04 0.03 0.03 0.04 0.04 0.04
0.00 0.02 0.03 0.03 0.04 0.03 0.01 0.01 0.01 0.02 0.02 0.02 0.02 0.02 0.02 0.02 0.02 0.02 0.02 0.02 0.03 0.04 0.03 0.02 0.02 0.02 0.03 0.02 0.02 0.03 0.03 0.01 0.01 0.01 0.01 0.01 0.03 0.04 0.04 0.04 0.04 0.04 0.04
0.00 0.01 0.02 0.03 0.03 0.03 0.03 0.02 0.01 0.02 0.02 0.02 0.02 0.02 0.02 0.02 0.02 0.02 0.01 0.01 0.02 0.03 0.03 0.03 0.02 0.03 0.02 0.02 0.02 0.02 0.03 0.02 0.01 0.00 0.01 0.01 0.04 0.05 0.04 0.03 0.03 0.04 0.04
0.01 0.01 0.02 0.02 0.03 0.04 0.04 0.03 0.02 0.02 0.02 0.02 0.03 0.02 0.02 0.02 0.02 0.01 0.01 0.01 0.01 0.03 0.03 0.04 0.03 0.04 0.03 0.03 0.02 0.02 0.02 0.02 0.01 0.00 0.01 0.01 0.03 0.04 0.03 0.02 0.02 0.03 0.03
0.00 0.01 0.01 0.02 0.02 0.02 0.02 0.03 0.04 0.03 0.03 0.03 0.03 0.01 0.01 0.02 0.01 0.01 0.01 0.01 0.01 0.03 0.03 0.03 0.03 0.03 0.03 0.03 0.02 0.02 0.02 0.02 0.01 0.01 0.01 0.01 0.02 0.03 0.03 0.03 0.03 0.03 0.03
0.01 0.01 0.01 0.02 0.02 0.01 0.01 0.02 0.03 0.04 0.04 0.03 0.02 0.02 0.02 0.02 0.01 0.01 0.01 0.01 0.02 0.03 0.04 0.05 0.04 0.03 0.03 0.03 0.03 0.02 0.03 0.03 0.02 0.01 0.01 0.01 0.03 0.03 0.04 0.03 0.02 0.02 0.03
0.02 0.02 0.01 0.01 0.02 0.01 0.01 0.01 0.02 0.03 0.03 0.03 0.03 0.03 0.02 0.02 0.01 0.01 0.01 0.01 0.02 0.03 0.04 0.05 0.05 0.03 0.03 0.03 0.03 0.03 0.03 0.03 0.02 0.01 0.01 0.02 0.03 0.05 0.05 0.03 0.02 0.02 0.02
0.03 0.03 0.01 0.01 0.02 0.02 0.01 0.01 0.03 0.03 0.03 0.03 0.03 0.03 0.02 0.02 0.01 0.01 0.01 0.01 0.02 0.03 0.03 0.06 0.06 0.06 0.03 0.03 0.03 0.03 0.03 0.03 0.02 0.02 0.01 0.01 0.02 0.04 0.04 0.04 0.02 0.01 0.02
0.03 0.03 0.03 0.02 0.02 0.02 0.01 0.01 0.03 0.03 0.03 0.02 0.02 0.02 0.03 0.02 0.02 0.01 0.01 0.01 0.01 0.02 0.04 0.13 0.12 0.10 0.04 0.02 0.02 0.03 0.03 0.03 0.03 0.02 0.02 0.02 0.03 0.02 0.02 0.02 0.02 0.02 0.02
0.03 0.02 0.03 0.03 0.02 0.02 0.01 0.01 0.01 0.02 0.02 0.02 0.02 0.02 0.03 0.03 0.03 0.02 0.01 0.01 0.01 0.01 0.03 0.12 0.14 0.11 0.06 0.03 0.02 0.03 0.03 0.03 0.03 0.04 0.03 0.03 0.04 0.02 0.02 0.01 0.01 0.02 0.02
0.04 0.02 0.02 0.03 0.03 0.02 0.01 0.01 0.01 0.01 0.01 0.01 0.01 0.01 0.02 0.02 0.03 0.02 0.02 0.01 0.01 0.02 0.02 0.06 0.05 0.04 0.05 0.04 0.03 0.02 0.03 0.03 0.03 0.05 0.05 0.04 0.03 0.02 0.02 0.02 0.01 0.02 0.02
0.04 0.03 0.02 0.02 0.02 0.02 0.01 0.01 0.01 0.01 0.01 0.01 0.01 0.01 0.01 0.01 0.02 0.03 0.02 0.02 0.02 0.02 0.02 0.03 0.05 0.04 0.03 0.03 0.03 0.02 0.02 0.03 0.02 0.04 0.05 0.04 0.03 0.03 0.03 0.02 0.02 0.02 0.02
0.06 0.04 0.02 0.02 0.02 0.02 0.01 0.01 0.01 0.01 0.01 0.02 0.02 0.01 0.01 0.02 0.02 0.02 0.02 0.02 0.02 0.02 0.02 0.02 0.03 0.04 0.04 0.04 0.04 0.04 0.02 0.02 0.02 0.03 0.04 0.03 0.03 0.03 0.03 0.02 0.03 0.03 0.03
0.07 0.05 0.03 0.02 0.02 0.02 0.02 0.01 0.01 0.01 0.01 0.01 0.01 0.01 0.01 0.01 0.02 0.02 0.02 0.02 0.02 0.03 0.02 0.02 0.02 0.03 0.03 0.03 0.05 0.06 0.04 0.02 0.03 0.03 0.03 0.03 0.03 0.03 0.02 0.02 0.04 0.05 0.05
0.06 0.05 0.03 0.02 0.01 0.01 0.02 0.01 0.01 0.00 0.00 0.01 0.01 0.01 0.00 0.01 0.01 0.01 0.01 0.01 0.02 0.03 0.03 0.02 0.02 0.02 0.02 0.03 0.04 0.05 0.04 0.02 0.02 0.02 0.03 0.03 0.03 0.03 0.02 0.02 0.03 0.05 0.07
0.06 0.05 0.04 0.02 0.01 0.01 0.01 0.02 0.01 0.01 0.00 0.00 0.00 0.01 0.01 0.01 0.01 0.01 0.01 0.01 0.02 0.03 0.03 0.02 0.02 0.02 0.03 0.03 0.03 0.04 0.04 0.02 0.02 0.02 0.02 0.03 0.04 0.03 0.03 0.03 0.02 0.02 0.05
0.05 0.05 0.03 0.02 0.01 0.01 0.01 0.01 0.02 0.02 0.01 0.01 0.01 0.01 0.01 0.01 0.01 0.01 0.01 0.01 0.01 0.03 0.04 0.02 0.02 0.03 0.03 0.03 0.04 0.05 0.04 0.02 0.02 0.01 0.02 0.02 0.02 0.03 0.03 0.02 0.02 0.02 0.02
0.04 0.05 0.04 0.02 0.01 0.00 0.01 0.01 0.01 0.02 0.02 0.01 0.01 0.02 0.02 0.02 0.01 0.01 0.01 0.01 0.01 0.03 0.06 0.05 0.02 0.03 0.03 0.04 0.05 0.06 0.06 0.03 0.03 0.02 0.01 0.02 0.02 0.02 0.03 0.02 0.02 0.02 0.02
0.04 0.04 0.04 0.02 0.01 0.00 0.00 0.01 0.01 0.01 0.02 0.04 0.03 0.02 0.02 0.03 0.03 0.03 0.02 0.02 0.02 0.02 0.03 0.04 0.04 0.03 0.03 0.03 0.05 0.06 0.07 0.05 0.03 0.02 0.01 0.02 0.03 0.03 0.03 0.03 0.03 0.03 0.03
0.03 0.04 0.03 0.02 0.01 0.00 0.00 0.00 0.01 0.00 0.01 0.02 0.04 0.05 0.03 0.02 0.03 0.03 0.03 0.02 0.02 0.02 0.02 0.02 0.02 0.03 0.04 0.04 0.05 0.07 0.09 0.08 0.04 0.03 0.02 0.02 0.02 0.03 0.03 0.03 0.03 0.02 0.02
0.03 0.03 0.04 0.03 0.02 0.01 0.01 0.01 0.01 0.01 0.00 0.00 0.01 0.04 0.06 0.05 0.03 0.02 0.02 0.02 0.02 0.02 0.02 0.03 0.02 0.02 0.03 0.04 0.04 0.05 0.07 0.07 0.05 0.03 0.02 0.02 0.02 0.03 0.03 0.03 0.03 0.03 0.03
0.03 0.03 0.03 0.04 0.02 0.02 0.02 0.01 0.01 0.01 0.01 0.00 0.00 0.01 0.03 0.06 0.06 0.05 0.03 0.02 0.02 0.01 0.02 0.03 0.03 0.03 0.03 0.04 0.04 0.04 0.04 0.05 0.04 0.04 0.02 0.02 0.02 0.03 0.04 0.04 0.04 0.05 0.04
0.03 0.03 0.03 0.04 0.03 0.02 0.02 0.01 0.01 0.01 0.02 0.01 0.00 0.00 0.00 0.01 0.04 0.06 0.06 0.05 0.04 0.03 0.02 0.03 0.03 0.03 0.03 0.03 0.03 0.03 0.04 0.04 0.03 0.03 0.02 0.02 0.02 0.02 0.03 0.03 0.04 0.05 0.05
0.02 0.02 0.03 0.03 0.03 0.03 0.03 0.02 0.01 0.01 0.02 0.02 0.01 0.01 0.00 0.01 0.01 0.02 0.04 0.05 0.06 0.06 0.04 0.03 0.03 0.04 0.04 0.03 0.03 0.03 0.03 0.03 0.03 0.03 0.02 0.02 0.02 0.02 0.02 0.03 0.03 0.04 0.05
MSLP
1012.09 1012.21 1012.45 1012.78 1013.17 1013.55 1013.89 1014.17 1014.38 1014.53 1014.66 1014.81 1014.98 1015.20 1015.45 1015.73 1016.01 1016.27 1016.49 1016.68 1016.84 1016.99 1017.15 1017.33 1017.51 1017.69 1017.86 1017.98 1018.06 1018.09 1018.08 1018.05 1018.02 1018.00 1018.01 1018.04 1018.07 1018.10 1018.11 1018.09 1018.03 1017.96 1017.88
1011.94 1012.04 1012.27 1012.62 1013.04 1013.47 1013.86 1014.18 1014.43 1014.60 1014.74 1014.87 1015.03 1015.24 1015.49 1015.77 1016.07 1016.36 1016.62 1016.84 1017.04 1017.23 1017.42 1017.62 1017.83 1018.04 1018.23 1018.39 1018.48 1018.53 1018.53 1018.51 1018.47 1018.45 1018.46 1018.48 1018.52 1018.55 1018.56 1018.54 1018.49 1018.42 1018.35
1011.76 1011.83 1012.06 1012.42 1012.86 1013.33 1013.78 1014.16 1014.46 1014.68 1014.84 1014.99 1015.15 1015.34 1015.58 1015.86 1016.16 1016.46 1016.74 1016.99 1017.23 1017.44 1017.66 1017.89 1018.12 1018.36 1018.57 1018.74 1018.85 1018.90 1018.91 1018.88 1018.85 1018.83 1018.83 1018.86 1018.90 1018.94 1018.97 1018.97 1018.94 1018.89 1018.84
1011.57 1011.63 1011.85 1012.20 1012.67 1013.17 1013.67 1014.12 1014.48 1014.76 1014.97 1015.14 1015.31 1015.50 1015.74 1016.01 1016.30 1016.60 1016.88 1017.15 1017.40 1017.64 1017.89 1018.14 1018.39 1018.64 1018.87 1019.04 1019.16 1019.22 1019.22 1019.19 1019.15 1019.13 1019.14 1019.17 1019.23 1019.29 1019.34 1019.36 1019.36 1019.34 1019.32
1011.44 1011.49 1011.69 1012.03 1012.50 1013.03 1013.57 1014.07 1014.49 1014.83 1015.09 1015.31 1015.50 1015.71 1015.94 1016.21 1016.49 1016.78 1017.06 1017.33 1017.60 1017.85 1018.11 1018.38 1018.66 1018.92 1019.15 1019.33 1019.45 1019.50 1019.50 1019.47 1019.42 1019.40 1019.41 1019.45 1019.52 1019.60 1019.68 1019.73 1019.76 1019.77 1019.77
1011.39 1011.43 1011.61 1011.94 1012.39 1012.92 1013.47 1014.00 1014.48 1014.87 1015.19 1015.46 1015.70 1015.93 1016.18 1016.44 1016.72 1017.00 1017.28 1017.55 1017.82 1018.09 1018.36 1018.65 1018.93 1019.20 1019.43 1019.62 1019.73 1019.78 1019.77 1019.74 1019.69 1019.67 1019.68 1019.74 1019.82 1019.92 1020.02 1020.10 1020.15 1020.18 1020.20
1011.43 1011.47 1011.63 1011.93 1012.35 1012.85 1013.39 1013.94 1014.44 1014.88 1015.25 1015.58 1015.87 1016.14 1016.41 1016.69 1016.98 1017.26 1017.54 1017.81 1018.08 1018.36 1018.64 1018.93 1019.22 1019.49 1019.73 1019.91 1020.02 1020.07 1020.06 1020.03 1019.99 1019.97 1020.00 1020.06 1020.16 1020.28 1020.39 1020.48 1020.54 1020.58 1020.61
1011.52 1011.57 1011.72 1011.99 1012.36 1012.82 1013.33 1013.85 1014.36 1014.84 1015.26 1015.64 1015.99 1016.31 1016.63 1016.94 1017.24 1017.54 1017.83 1018.11 1018.38 1018.66 1018.94 1019.23 1019.51 1019.78 1020.01 1020.19 1020.31 1020.36 1020.36 1020.34 1020.32 1020.32 1020.37 1020.45 1020.56 1020.69 1020.80 1020.90 1020.96 1021.01 1021.03
1011.61 1011.68 1011.83 1012.06 1012.38 1012.79 1013.25 1013.75 1014.26 1014.75 1015.22 1015.65 1016.05 1016.44 1016.81 1017.17 1017.51 1017.83 1018.13 1018.42 1018.69 1018.97 1019.24 1019.52 1019.79 1020.05 1020.27 1020.45 1020.56 1020.63 1020.66 1020.66 1020.67 1020.71 1020.78 1020.88 1021.01 1021.15 1021.27 1021.36 1021.43 1021.46 1021.47
1011.62 1011.73 1011.87 1012.08 1012.37 1012.73 1013.16 1013.63 1014.13 1014.64 1015.14 1015.62 1016.08 1016.53 1016.96 1017.37 1017.75 1018.10 1018.43 1018.72 1019.00 1019.27 1019.53 1019.79 1020.04 1020.27 1020.48 1020.65 1020.77 1020.86 1020.92 1020.96 1021.02 1021.09 1021.20 1021.34 1021.49 1021.64 1021.76 1021.86 1021.91 1021.93 1021.93
1011.51 1011.64 1011.80 1012.00 1012.27 1012.61 1013.02 1013.48 1013.99 1014.52 1015.05 1015.58 1016.10 1016.60 1017.08 1017.54 1017.96 1018.35 1018.70 1019.01 1019.29 1019.55 1019.79 1020.02 1020.24 1020.44 1020.63 1020.78 1020.91 1021.02 1021.12 1021.21 1021.32 1021.44 1021.60 1021.77 1021.95 1022.11 1022.24 1022.34 1022.38 1022.39 1022.39
1011.24 1011.40 1011.58 1011.80 1012.08 1012.43 1012.85 1013.33 1013.86 1014.42 1014.99 1015.56 1016.12 1016.67 1017.19 1017.68 1018.14 1018.55 1018.92 1019.25 1019.53 1019.78 1019.99 1020.19 1020.38 1020.55 1020.71 1020.86 1020.99 1021.12 1021.26 1021.40 1021.56 1021.74 1021.94 1022.15 1022.35 1022.53 1022.66 1022.75 1022.80 1022.81 1022.80
1010.84 1011.02 1011.23 1011.48 1011.79 1012.19 1012.65 1013.18 1013.76 1014.36 1014.97 1015.58 1016.17 1016.74 1017.28 1017.79 1018.27 1018.70 1019.09 1019.43 1019.71 1019.95 1020.15 1020.33 1020.49 1020.63 1020.77 1020.90 1021.04 1021.19 1021.36 1021.55 1021.75 1021.98 1022.22 1022.45 1022.67 1022.85 1022.99 1023.08 1023.13 1023.14 1023.14
1010.40 1010.58 1010.80 1011.09 1011.47 1011.93 1012.47 1013.07 1013.72 1014.37 1015.03 1015.65 1016.25 1016.82 1017.36 1017.87 1018.35 1018.79 1019.19 1019.53 1019.83 1020.07 1020.27 1020.44 1020.58 1020.71 1020.83 1020.96 1021.11 1021.28 1021.47 1021.69 1021.94 1022.19 1022.46 1022.70 1022.92 1023.10 1023.23 1023.31 1023.35 1023.37 1023.38
1010.00 1010.16 1010.39 1010.72 1011.16 1011.70 1012.33 1013.03 1013.75 1014.46 1015.15 1015.79 1016.38 1016.93 1017.44 1017.92 1018.38 1018.81 1019.21 1019.57 1019.88 1020.14 1020.36 1020.54 1020.68 1020.82 1020.94 1021.08 1021.24 1021.43 1021.65 1021.89 1022.15 1022.43 1022.69 1022.93 1023.14 1023.29 1023.40 1023.46 1023.49 1023.50 1023.52
1009.75 1009.88 1010.10 1010.45 1010.95 1011.56 1012.28 1013.06 1013.86 1014.63 1015.33 1015.97 1016.54 1017.04 1017.50 1017.94 1018.36 1018.78 1019.17 1019.54 1019.88 1020.18 1020.43 1020.65 1020.83 1020.99 1021.14 1021.30 1021.48 1021.69 1021.93 1022.19 1022.46 1022.73 1022.98 1023.20 1023.37 1023.49 1023.56 1023.59 1023.59 1023.59 1023.60
1009.73 1009.80 1010.00 1010.35 1010.88 1011.55 1012.35 1013.19 1014.05 1014.85 1015.58 1016.20 1016.72 1017.17 1017.57 1017.95 1018.33 1018.71 1019.10 1019.49 1019.86 1020.20 1020.51 1020.77 1021.01 1021.22 1021.41 1021.62 1021.83 1022.06 1022.31 1022.58 1022.85 1023.11 1023.35 1023.54 1023.68 1023.77 1023.79 1023.78 1023.75 1023.72 1023.71
1009.93 1009.95 1010.11 1010.45 1010.98 1011.68 1012.51 1013.41 1014.30 1015.13 1015.85 1016.45 1016.94 1017.33 1017.67 1017.98 1018.31 1018.66 1019.04 1019.43 1019.84 1020.23 1020.59 1020.92 1021.22 1021.49 1021.74 1021.99 1022.25 1022.51 1022.78 1023.06 1023.33 1023.59 1023.81 1023.98 1024.09 1024.15 1024.14 1024.10 1024.03 1023.95 1023.91
1010.31 1010.28 1010.40 1010.71 1011.22 1011.93 1012.77 1013.68 1014.59 1015.43 1016.15 1016.72 1017.17 1017.52 1017.80 1018.07 1018.35 1018.67 1019.03 1019.43 1019.85 1020.27 1020.69 1021.08 1021.44 1021.77 1022.08 1022.38 1022.68 1022.97 1023.27 1023.56 1023.84 1024.10 1024.32 1024.49 1024.59 1024.64 1024.63 1024.56 1024.47 1024.36 1024.27
1010.75 1010.71 1010.79 1011.07 1011.55 1012.23 1013.06 1013.97 1014.88 1015.71 1016.43 1017.00 1017.43 1017.75 1018.01 1018.24 1018.48 1018.77 1019.11 1019.50 1019.93 1020.37 1020.81 1021.24 1021.65 1022.03 1022.38 1022.72 1023.06 1023.38 1023.70 1024.01 1024.30 1024.58 1024.82 1025.01 1025.14 1025.21 1025.22 1025.17 1025.07 1024.95 1024.82
1011.12 1011.10 1011.18 1011.43 1011.88 1012.53 1013.34 1014.23 1015.12 1015.96 1016.68 1017.26 1017.70 1018.03 1018.28 1018.51 1018.74 1019.00 1019.32 1019.69 1020.09 1020.52 1020.96 1021.40 1021.82 1022.22 1022.60 1022.97 1023.32 1023.67 1024.00 1024.33 1024.65 1024.95 1025.23 1025.47 1025.66 1025.79 1025.86 1025.86 1025.79 1025.68 1025.54
1011.30 1011.34 1011.45 1011.70 1012.14 1012.76 1013.54 1014.40 1015.29 1016.14 1016.87 1017.49 1017.97 1018.33 1018.62 1018.86 1019.10 1019.35 1019.64 1019.98 1020.34 1020.74 1021.14 1021.55 1021.96 1022.35 1022.73 1023.10 1023.46 1023.80 1024.15 1024.49 1024.84 1025.17 1025.50 1025.81 1026.08 1026.30 1026.46 1026.54 1026.55 1026.48 1026.35
1011.19 1011.34 1011.52 1011.81 1012.26 1012.87 1013.63 1014.48 1015.36 1016.22 1016.99 1017.65 1018.19 1018.63 1018.97 1019.26 1019.53 1019.79 1020.06 1020.35 1020.67 1021.00 1021.35 1021.71 1022.07 1022.42 1022.78 1023.13 1023.47 1023.81 1024.15 1024.50 1024.86 1025.23 1025.61 1025.98 1026.34 1026.67 1026.94 1027.13 1027.23 1027.24 1027.16
1010.79 1011.08 1011.37 1011.74 1012.23 1012.85 1013.60 1014.44 1015.33 1016.20 1017.01 1017.73 1018.35 1018.87 1019.30 1019.66 1019.97 1020.25 1020.52 1020.78 1021.04 1021.31 1021.58 1021.87 1022.17 1022.48 1022.79 1023.11 1023.43 1023.75 1024.08 1024.41 1024.77 1025.15 1025.56 1026.00 1026.44 1026.87 1027.25 1027.56 1027.77 1027.87 1027.86
1010.14 1010.60 1011.03 1011.50 1012.06 1012.72 1013.48 1014.32 1015.21 1016.10 1016.94 1017.73 1018.42 1019.03 1019.55 1019.99 1020.36 1020.68 1020.95 1021.19 1021.41 1021.62 1021.83 1022.06 1022.30 1022.56 1022.83 1023.12 1023.41 1023.70 1024.00 1024.31 1024.65 1025.03 1025.45 1025.91 1026.41 1026.91 1027.38 1027.80 1028.12 1028.32 1028.40
1009.36 1010.00 1010.59 1011.18 1011.82 1012.53 1013.32 1014.16 1015.05 1015.94 1016.81 1017.64 1018.40 1019.09 1019.69 1020.22 1020.66 1021.02 1021.31 1021.55 1021.75 1021.92 1022.09 1022.27 1022.48 1022.70 1022.95 1023.21 1023.48 1023.75 1024.02 1024.30 1024.60 1024.95 1025.35 1025.81 1026.32 1026.85 1027.38 1027.87 1028.28 1028.57 1028.74
Thickness
5684 5683 5682 5683 5684 5684 5685 5686 5686 5687 5688 5688 5689 5689 5690 5691 5691 5692 5692 5693 5694 5694 5695 5696 5696 5697 5698 5698 5698 5698 5699 5699 5700 5700 5701 5702 5702 5703 5703 5703 5705 5705 5704
5681 5680 5679 5680 5681 5681 5681 5682 5682 5683 5683 5684 5684 5685 5686 5687 5687 5688 5688 5689 5689 5690 5691 5691 5692 5693 5693 5694 5694 5694 5695 5695 5696 5697 5697 5698 5699 5699 5699 5700 5701 5701 5700
5676 5676 5676 5676 5677 5677 5677 5677 5678 5678 5679 5679 5680 5680 5681 5682 5682 5683 5683 5684 5685 5685 5686 5687 5687 5688 5688 5689 5689 5690 5690 5691 5692 5693 5695 5696 5696 5695 5696 5696 5696 5696 5696
5672 5672 5672 5672 5672 5672 5673 5673 5673 5673 5674 5674 5675 5676 5676 5677 5678 5678 5679 5679 5680 5680 5681 5682 5682 5683 5683 5684 5684 5685 5686 5687 5688 5690 5692 5693 5693 5691 5692 5692 5693 5692 5692
5666 5667 5667 5668 5668 5668 5668 5668 5668 5668 5669 5669 5670 5671 5671 5672 5672 5673 5673 5674 5675 5675 5676 5677 5678 5678 5678 5679 5679 5680 5681 5682 5684 5686 5687 5688 5688 5687 5687 5688 5688 5688 5688
5661 5662 5661 5662 5662 5662 5662 5663 5663 5663 5663 5664 5664 5665 5666 5666 5667 5667 5668 5668 5669 5670 5671 5672 5673 5673 5673 5674 5674 5675 5676 5678 5681 5682 5683 5683 5683 5682 5682 5683 5683 5683 5684
5656 5656 5656 5655 5656 5656 5657 5657 5657 5657 5657 5658 5658 5659 5660 5660 5660 5661 5661 5662 5663 5664 5666 5666 5667 5668 5668 5669 5669 5669 5671 5673 5676 5677 5678 5678 5677 5677 5678 5678 5678 5679 5679
5649 5649 5649 5648 5649 5650 5650 5651 5651 5651 5651 5652 5652 5653 5653 5654 5654 5654 5655 5656 5657 5658 5660 5661 5662 5662 5663 5663 5663 5664 5665 5668 5670 5672 5672 5672 5671 5672 5672 5673 5673 5674 5674
5643 5643 5643 5642 5642 5643 5643 5644 5644 5644 5644 5645 5645 5646 5646 5647 5647 5648 5649 5650 5651 5652 5653 5654 5655 5656 5657 5657 5658 5659 5660 5662 5665 5666 5667 5666 5666 5666 5667 5667 5668 5669 5669
5635 5636 5636 5636 5636 5636 5636 5636 5637 5637 5637 5638 5638 5639 5639 5640 5640 5641 5642 5643 5644 5645 5646 5647 5648 5649 5650 5651 5652 5653 5654 5657 5659 5660 5660 5660 5660 5661 5662 5662 5663 5663 5664
5628 5628 5629 5629 5629 5629 5630 5629 5630 5630 5630 5631 5631 5632 5632 5633 5634 5634 5635 5636 5637 5638 5639 5640 5641 5642 5644 5644 5645 5647 5649 5651 5653 5653 5653 5653 5654 5655 5656 5657 5657 5658 5659
5621 5621 5622 5622 5622 5622 5622 5622 5623 5623 5623 5624 5624 5625 5626 5626 5626 5627 5627 5629 5630 5631 5632 5633 5634 5636 5638 5639 5639 5641 5643 5645 5646 5646 5646 5646 5647 5649 5650 5651 5652 5652 5653
5614 5614 5614 5614 5614 5615 5615 5615 5615 5615 5615 5616 5617 5618 5618 5619 5620 5620 5621 5622 5623 5625 5626 5627 5628 5630 5632 5632 5633 5635 5636 5637 5638 5639 5638 5639 5640 5642 5643 5644 5645 5646 5647
5607 5607 5606 5606 5606 5607 5607 5608 5608 5608 5608 5608 5608 5609 5611 5611 5612 5613 5614 5615 5616 5617 5618 5620 5621 5623 5624 5626 5627 5627 5629 5630 5631 5631 5631 5631 5633 5634 5636 5637 5638 5639 5640
5600 5599 5598 5598 5598 5599 5599 5600 5600 5600 5600 5599 5600 5601 5602 5603 5604 5605 5606 5607 5609 5609 5611 5612 5614 5615 5617 5618 5619 5620 5621 5622 5623 5623 5624 5624 5625 5626 5628 5629 5630 5631 5632
5591 5591 5590 5590 5590 5591 5591 5591 5591 5591 5591 5591 5591 5592 5593 5594 5595 5597 5598 5599 5600 5601 5602 5604 5605 5607 5608 5610 5611 5612 5613 5614 5615 5615 5616 5617 5617 5618 5620 5621 5622 5623 5624
5582 5582 5582 5582 5582 5582 5582 5582 5582 5582 5582 5582 5582 5583 5584 5585 5586 5587 5589 5590 5591 5592 5593 5595 5596 5598 5600 5601 5602 5603 5605 5606 5607 5608 5608 5609 5609 5610 5611 5612 5613 5615 5616
5573 5573 5573 5573 5573 5573 5572 5572 5572 5572 5572 5573 5573 5574 5574 5575 5576 5577 5579 5580 5581 5582 5584 5586 5588 5589 5591 5592 5593 5594 5595 5597 5598 5599 5599 5600 5601 5601 5602 5603 5604 5606 5607
5564 5564 5563 5563 5563 5562 5562 5562 5562 5562 5562 5562 5563 5564 5564 5565 5566 5567 5568 5569 5571 5573 5574 5576 5578 5579 5581 5582 5583 5585 5586 5588 5589 5590 5591 5591 5591 5592 5593 5594 5595 5597 5598
5553 5553 5553 5553 5552 5552 5552 5551 5551 5551 5551 5552 5552 5552 5553 5554 5555 5556 5557 5558 5560 5562 5564 5566 5567 5568 5569 5571 5573 5576 5577 5579 5580 5581 5582 5582 5582 5583 5584 5586 5587 5588 5590
5543 5543 5543 5543 5542 5541 5542 5542 5542 5541 5540 5540 5541 5541 5542 5543 5544 5546 5546 5547 5549 5551 5553 5554 5557 5557 5558 5560 5563 5566 5569 5571 5572 5572 5572 5573 5573 5574 5575 5576 5578 5579 5581
5532 5532 5532 5531 5531 5531 5531 5530 5530 5529 5529 5528 5528 5529 5530 5531 5533 5534 5535 5536 5537 5539 5541 5543 5545 5546 5547 5548 5550 5555 5561 5563 5563 5562 5562 5562 5563 5564 5565 5566 5568 5570 5571
5520 5520 5520 5520 5519 5519 5518 5518 5518 5518 5518 5518 5518 5518 5518 5519 5520 5522 5523 5524 5525 5527 5529 5530 5532 5535 5536 5536 5537 5540 5546 5552 5550 5553 5552 5552 5553 5554 5555 5556 5558 5560 5562
5506 5506 5507 5507 5506 5506 5506 5507 5508 5509 5509 5508 5506 5506 5506 5507 5508 5509 5510 5512 5513 5515 5516 5517 5519 5521 5523 5524 5524 5526 5528 5531 5534 5540 5542 5542 5542 5543 5544 5546 5548 5550 5552
5493 5493 5493 5493 5493 5493 5493 5494 5495 5495 5495 5494 5494 5494 5495 5495 5495 5496 5497 5499 5500 5502 5503 5504 5506 5507 5510 5511 5513 5514 5515 5517 5520 5525 5530 5532 5531 5532 5533 5535 5537 5540 5542
5480 5480 5480 5481 5481 5480 5481 5481 5482 5482 5481 5482 5482 5482 5483 5483 5483 5483 5484 5485 5487 5488 5490 5492 5493 5495 5496 5498 5499 5501 5503 5505 5508 5512 5516 5519 5520 5521 5522 5525 5527 5529 5532